Wind_Speed
58 57 57 56 55 55 54 55 56 56 57 58 59 59 59 60 60 60 60 60 60 61 61 61 61 61 61 61 61 61 62 62 62 62 63 63 62 62 60 60 59 58 57 56 56 56 55 55 54 53 53 53 52 52 51 51 51 51 51 52 52 52 52 53 52 49 48 48 48 49 49 49 49 48 49 49 50 51 51 51 51 51 52 53 54
57 57 56 56 56 56 57 58 59 59 60 61 61 61 61 61 61 61 60 60 61 61 62 62 62 62 62 61 61 61 61 61 62 62 62 62 61 61 60 59 59 58 58 58 58 58 59 59 58 58 58 58 57 56 56 56 56 56 56 56 55 55 55 55 55 54 53 52 52 51 50 49 48 48 48 49 50 51 50 50 51 52 53 54 55
57 57 57 58 58 59 60 61 61 61 61 61 61 61 61 61 62 61 61 61 60 61 61 61 61 61 62 62 61 62 61 62 62 62 62 61 61 60 60 59 59 59 58 58 58 59 60 60 60 60 61 61 60 60 60 59 59 59 59 59 59 58 57 57 57 57 56 55 55 53 50 49 49 48 47 49 50 50 50 51 52 53 55 55 56
57 58 59 60 61 62 62 63 63 62 61 61 61 61 61 61 61 61 61 60 59 59 59 59 60 60 61 61 61 61 61 61 61 61 61 61 61 61 61 60 60 59 59 58 58 59 60 60 60 60 61 62 61 61 61 61 61 60 60 59 59 57 57 56 56 56 55 55 54 52 50 50 49 48 48 49 50 50 51 52 53 54 55 56 57
56 58 59 61 62 63 64 63 63 62 61 61 61 61 61 60 60 59 59 59 58 57 57 57 58 58 58 59 59 59 59 59 59 59 59 60 59 60 60 59 59 59 58 58 58 59 59 59 59 60 60 61 60 60 60 60 60 60 59 58 57 56 55 54 54 53 54 54 52 50 50 50 49 49 49 50 51 51 51 51 53 54 55 56 58
57 57 58 59 60 61 63 64 64 63 63 62 62 61 61 60 59 58 57 57 56 55 54 54 55 55 55 55 56 56 56 56 57 57 57 57 57 57 57 56 56 56 56 56 56 56 57 57 57 58 58 58 58 58 58 58 58 57 56 55 55 54 53 53 52 53 53 53 51 50 50 50 51 51 51 50 50 51 51 52 53 54 55 57 59
58 59 59 59 59 60 61 62 64 65 65 65 63 62 61 60 60 59 58 57 56 55 55 54 54 54 54 53 53 54 54 54 55 55 55 56 56 56 55 54 54 53 53 53 53 54 54 54 55 55 55 55 55 55 55 55 55 54 54 53 53 53 52 52 52 53 53 53 51 51 51 51 52 53 53 52 51 51 53 54 55 55 56 58 59
63 63 63 63 63 63 62 62 63 64 65 66 66 65 64 62 61 60 59 59 58 58 57 56 56 55 54 54 54 54 54 54 54 55 55 56 56 56 56 55 54 54 54 53 53 54 54 54 54 54 54 54 54 54 54 54 54 54 53 54 54 54 53 53 54 54 54 53 52 51 52 53 53 54 53 54 53 53 54 56 56 56 58 59 59
67 67 68 67 67 67 67 67 67 66 66 66 67 67 67 66 65 63 62 61 60 60 59 59 58 58 57 57 57 58 58 58 58 58 58 57 57 57 57 57 57 56 56 55 55 55 56 56 56 56 56 56 56 56 56 56 57 56 56 57 58 58 58 57 58 57 56 56 54 53 54 54 55 54 54 54 55 55 56 57 57 58 59 59 59
63 66 68 69 70 70 70 71 71 70 69 69 69 69 69 69 67 66 65 64 63 62 61 61 61 60 60 60 61 61 62 62 63 63 63 62 61 61 60 59 60 59 58 58 58 59 60 60 60 60 61 61 61 61 61 61 62 61 61 62 62 62 63 63 62 61 60 59 57 56 57 57 56 55 55 55 56 56 56 57 58 58 59 59 58
60 61 63 65 67 69 70 71 71 71 72 72 72 72 73 72 71 69 68 67 66 65 65 65 65 65 64 63 64 65 66 67 67 68 68 67 67 66 64 63 63 62 61 61 61 62 64 64 64 65 65 66 66 66 66 66 66 66 66 66 67 67 67 66 65 64 63 62 60 59 60 58 56 56 56 56 57 57 57 58 58 58 58 58 59
60 61 62 63 64 66 67 68 70 71 72 73 74 75 76 76 75 73 72 71 70 70 70 70 70 71 71 70 70 70 70 71 71 72 72 73 73 72 70 69 68 67 66 65 65 66 67 68 68 69 69 70 71 71 70 70 70 69 70 70 70 71 70 69 69 67 66 64 62 62 61 59 57 57 57 57 58 58 58 57 57 58 59 59 59
63 64 65 66 66 67 68 69 70 71 72 73 75 76 77 78 78 77 76 75 74 74 74 75 75 76 76 76 76 76 76 76 76 77 77 78 79 79 77 76 74 73 71 71 71 71 71 71 72 72 73 74 74 75 74 74 74 74 74 74 73 73 71 71 71 70 68 66 65 63 61 59 59 57 56 58 59 58 58 57 58 58 59 59 60
64 65 66 68 69 70 71 71 72 73 74 75 76 77 78 79 79 80 80 80 80 80 80 81 81 82 81 81 81 81 82 82 82 83 83 83 83 83 82 82 81 79 78 77 76 76 75 75 75 75 76 76 76 76 76 75 76 76 77 76 75 73 71 70 70 70 69 68 66 65 62 61 60 57 57 58 59 58 58 58 59 60 60 60 60
62 63 65 66 68 69 71 72 73 73 74 75 76 77 78 79 80 81 81 82 83 83 84 84 85 85 85 85 84 84 85 86 86 87 86 86 85 85 84 84 84 84 83 83 82 81 80 80 80 79 79 78 78 78 77 75 74 75 75 75 74 73 71 70 69 69 68 67 66 65 64 62 60 58 57 58 58 59 60 60 60 60 61 61 60
61 61 61 62 63 65 66 67 69 70 72 73 74 75 76 78 79 81 82 83 84 84 84 84 84 85 85 86 86 87 87 88 88 88 88 88 87 87 86 85 85 85 85 85 85 84 84 84 83 83 82 81 80 80 79 78 76 74 73 73 73 73 71 70 70 69 68 67 66 66 64 62 59 57 56 57 58 60 61 60 60 61 61 61 62
61 60 60 60 60 60 62 63 64 65 67 68 70 71 73 74 76 78 80 81 83 85 85 86 86 86 87 87 88 88 89 89 89 88 88 87 87 87 87 87 86 85 85 85 85 85 85 86 86 85 85 83 82 81 81 81 80 77 75 74 73 72 71 71 71 70 69 69 68 66 65 63 60 57 56 56 58 60 60 60 60 61 62 62 62
59 59 59 59 60 61 62 63 64 64 65 66 66 67 69 70 72 75 76 78 80 82 83 85 86 88 89 89 89 89 89 90 90 89 89 88 88 87 87 88 88 87 87 86 86 86 86 86 86 86 86 85 84 83 83 83 83 81 79 77 75 73 72 72 72 71 70 69 68 67 66 64 62 60 58 57 58 59 59 60 61 63 63 63 62
60 60 62 63 63 64 65 66 67 67 67 67 68 68 68 68 69 71 73 75 77 79 80 81 83 85 87 88 89 89 89 89 90 90 89 89 89 89 89 89 88 89 89 89 89 88 88 87 87 87 86 86 86 85 85 85 84 83 81 80 78 75 73 74 74 73 71 70 69 68 67 65 64 63 61 60 60 59 60 61 63 64 63 62 63
62 64 66 67 68 68 69 69 70 69 69 69 69 69 70 70 70 70 71 72 74 76 78 80 80 82 84 85 86 87 87 88 88 89 88 88 88 87 87 88 88 88 89 89 89 89 89 89 88 88 88 87 87 86 86 85 85 84 83 82 81 78 76 76 76 75 74 72 70 69 68 67 66 65 62 62 62 62 63 64 64 63 62 62 62
64 66 68 69 70 71 71 72 73 73 72 71 70 70 70 71 71 72 72 72 72 73 75 77 77 78 80 82 83 84 84 85 86 86 86 85 85 84 83 84 84 84 85 85 86 86 86 86 86 86 85 85 84 84 83 83 82 82 81 81 80 79 78 78 77 76 75 73 71 69 68 67 66 65 64 64 65 66 66 67 64 61 61 61 61
65 66 68 69 71 72 74 75 75 76 76 75 74 73 71 70 69 69 70 70 70 70 71 72 72 73 75 77 78 80 81 81 82 82 82 82 81 80 80 79 80 80 80 80 80 80 80 79 79 79 78 78 77 77 77 77 77 76 76 76 75 74 73 73 72 71 70 68 65 64 63 64 65 65 66 66 67 68 69 69 66 63 60 59 59
65 66 68 70 72 73 74 75 76 78 77 76 75 73 71 68 65 64 63 63 63 63 64 65 66 66 67 69 71 73 74 75 76 77 77 77 76 75 75 74 75 75 75 74 74 74 74 73 73 72 72 72 71 71 71 71 72 71 71 70 70 68 66 65 65 64 63 61 59 58 58 60 63 65 66 67 69 70 70 70 70 67 63 61 60
65 67 69 71 73 74 75 76 77 78 77 75 72 69 67 64 61 58 56 56 57 56 57 58 59 60 60 61 63 65 66 68 70 71 71 71 71 71 70 69 69 69 68 68 68 68 68 68 67 67 67 67 67 67 67 68 68 67 66 65 65 65 63 63 63 63 61 61 60 59 59 61 63 65 66 68 68 68 68 69 68 66 64 63 63
67 69 71 73 74 75 76 78 79 77 74 71 69 66 63 60 57 54 51 51 51 51 51 51 52 52 53 55 57 60 62 63 64 65 66 66 67 67 66 65 65 64 63 62 62 62 62 61 61 61 61 62 63 63 64 65 65 65 63 62 62 62 62 62 62 60 59 60 61 61 60 62 64 66 67 67 66 66 67 68 67 66 66 67 68
69 71 73 75 76 77 78 79 79 75 70 67 65 64 61 59 56 54 51 50 49 48 48 49 49 48 49 50 52 54 57 59 61 62 62 62 62 62 62 62 62 61 61 60 60 59 58 58 57 58 58 59 60 60 60 61 62 62 62 61 60 60 60 60 59 58 57 58 59 59 60 61 63 64 65 66 67 67 67 66 66 67 68 69 70
71 73 75 77 78 79 79 80 78 73 67 64 63 62 61 60 58 56 54 53 51 48 49 51 52 51 51 51 51 52 52 54 57 58 59 59 58 58 58 58 58 58 58 58 59 58 58 57 57 57 58 59 59 59 60 60 61 61 61 61 60 60 59 59 59 58 59 58 58 59 60 60 61 62 63 64 66 67 67 66 65 63 62 63 64
74 76 78 79 79 79 79 79 77 70 65 64 62 61 59 59 59 58 57 55 53 51 50 51 53 53 52 52 53 54 55 57 58 58 57 57 57 57 56 56 56 56 55 55 55 55 55 55 55 56 56 57 58 58 59 60 60 61 61 61 62 61 60 59 58 58 59 60 59 59 59 59 59 60 60 61 62 62 63 63 62 59 56 55 56
78 79 80 80 79 79 79 78 74 68 64 63 63 61 59 58 57 56 56 56 56 54 52 51 52 54 54 52 52 52 54 57 61 61 60 60 60 58 56 55 54 53 52 51 51 51 50 50 50 50 51 53 54 55 56 57 57 58 59 60 60 61 61 60 59 59 58 57 57 57 57 58 58 58 58 58 58 57 57 58 58 58 56 54 52
80 80 80 80 79 79 78 75 70 66 64 63 62 61 59 58 57 56 54 54 55 54 54 53 53 54 54 53 52 51 50 51 54 57 58 59 59 58 57 55 53 52 51 50 50 49 48 48 47 46 46 47 48 49 51 52 52 53 54 54 55 56 57 58 59 60 59 57 56 56 56 56 56 56 57 58 58 58 58 58 57 57 57 55 52
80 80 80 79 79 78 76 72 68 66 64 63 62 60 58 57 56 56 55 54 53 53 54 53 53 54 53 52 52 52 51 51 51 52 53 54 55 55 55 55 54 53 52 51 49 48 48 47 46 45 45 45 44 45 45 46 47 48 48 49 49 50 51 52 53 55 55 55 55 55 55 55 55 55 55 56 56 57 58 59 58 57 57 57 55
81 80 80 79 78 76 73 70 68 67 65 63 62 61 59 56 55 54 54 54 54 53 53 54 54 54 55 54 53 52 52 53 53 53 53 54 55 55 55 55 55 55 55 53 51 50 49 48 47 46 46 45 44 44 43 43 43 44 44 44 44 45 46 47 48 49 50 50 51 52 53 54 55 55 55 54 54 54 55 56 56 55 55 56 57
81 81 79 78 75 73 70 69 68 68 66 65 63 61 60 58 56 54 54 54 54 54 54 54 55 55 56 56 56 55 54 54 55 55 55 56 56 57 57 57 56 56 56 56 54 52 51 50 49 48 48 47 46 45 44 43 43 42 42 42 42 42 43 43 45 46 46 47 48 49 50 51 52 52 53 53 52 52 52 53 54 54 54 54 55
81 80 78 75 72 70 70 70 69 68 66 65 64 62 61 60 59 57 56 55 54 54 54 55 55 56 57 57 58 58 57 57 57 57 57 58 59 59 60 59 59 59 59 59 58 56 55 53 52 51 51 50 49 48 47 46 46 45 44 44 43 43 43 43 43 44 44 45 46 47 47 48 49 49 50 51 51 51 51 51 52 53 53 53 53
80 77 74 72 71 71 71 70 69 68 67 66 64 63 63 61 60 59 58 57 56 55 55 55 56 57 57 58 59 59 60 60 60 60 60 61 61 62 62 62 62 62 62 62 61 60 59 58 57 55 55 54 54 53 52 51 51 50 49 48 48 47 46 46 46 46 46 46 46 46 47 47 47 47 48 48 49 49 50 50 51 51 52 52 52
76 73 71 71 72 72 71 70 69 68 67 66 65 64 64 63 61 60 59 59 58 57 56 57 57 57 58 59 59 60 61 61 62 62 63 63 64 64 65 65 65 65 66 66 65 65 64 63 62 61 60 60 59 59 58 57 56 56 55 54 53 52 51 50 50 49 49 49 49 49 49 49 49 48 48 48 48 47 48 48 49 50 51 51 51
72 71 71 72 72 71 70 69 69 68 68 67 66 66 65 64 63 62 61 61 60 59 59 58 58 58 59 60 61 61 61 61 62 62 63 63 64 65 65 65 66 67 67 68 69 69 69 68 68 67 66 66 65 64 64 63 62 62 61 60 59 57 56 56 55 54 53 53 52 52 52 52 52 51 51 51 50 49 48 48 48 49 50 51 51
72 72 72 71 70 70 69 69 69 69 68 68 67 67 66 65 65 64 64 63 62 62 61 61 61 61 61 61 62 63 62 63 63 63 63 64 65 65 65 65 65 66 66 67 69 70 71 71 72 72 71 71 71 70 70 69 68 68 67 66 65 64 62 61 60 59 58 57 56 56 55 55 55 55 55 54 54 53 52 51 49 49 49 50 51
73 73 72 71 70 69 69 69 69 69 69 69 69 68 68 67 67 66 66 65 65 64 64 64 64 64 64 65 65 66 66 67 67 67 68 69 69 70 70 70 70 70 70 70 70 71 71 71 71 72 72 73 73 73 73 73 73 73 72 71 70 69 68 67 66 65 64 62 61 61 60 59 58 58 58 58 57 57 56 55 53 51 50 50 51
73 73 72 72 71 71 70 70 70 70 70 70 70 70 69 69 68 68 67 67 67 67 67 67 67 68 68 69 70 70 71 71 72 73 74 74 75 76 76 77 77 77 77 77 77 77 77 76 76 76 76 75 75 75 75 75 75 75 75 75 75 74 73 72 71 70 69 68 67 66 65 63 62 61 61 60 60 60 60 59 58 56 54 52 51
73 73 72 72 72 72 71 71 71 71 71 71 71 71 71 70 70 70 70 69 69 70 70 70 71 72 73 74 75 76 76 77 78 79 80 80 81 82 82 83 83 83 84 84 84 84 84 83 83 83 82 82 82 81 80 80 79 78 78 78 77 77 76 76 75 75 74 73 72 71 70 68 67 66 64 64 63 63 62 62 61 60 58 55 53
75 74 73 73 73 73 73 73 73 72 72 72 72 72 72 72 72 72 72 72 73 73 74 75 76 77 78 79 80 81 82 83 84 84 85 86 87 88 88 89 90 90 91 91 91 91 91 90 90 90 89 89 88 88 87 86 85 84 83 82 80 80 79 79 78 78 77 77 76 75 74 73 71 70 69 67 66 65 65 64 63 62 60 58 56
77 76 76 75 75 75 75 75 75 75 75 75 75 75 75 75 75 76 76 76 77 78 78 79 80 81 82 84 85 86 87 88 89 90 91 92 93 93 94 95 95 95 96 96 96 96 96 96 96 96 96 95 95 94 93 92 91 90 89 87 86 84 83 82 81 81 80 79 78 77 76 75 74 73 72 71 69 68 67 66 65 64 62 60 58
79 78 78 78 77 77 77 77 77 77 77 78 78 78 79 79 79 80 80 81 82 83 84 84 85 86 87 88 89 90 91 92 93 93 93 93 93 92 92 91 91 91 92 92 93 93 94 94 95 95 96 97 97 97 97 97 96 95 94 93 91 89 88 87 86 85 84 82 81 80 78 77 75 74 73 72 72 71 70 69 67 66 64 62 59
80 80 80 80 80 80 80 80 80 80 81 81 81 82 82 83 83 84 85 86 87 88 89 89 90 91 91 92 92 92 92 90 89 87 85 83 82 80 78 77 77 77 77 77 77 78 79 79 80 82 83 85 87 90 92 93 95 95 96 95 95 94 92 91 90 88 87 86 85 83 82 80 78 76 75 74 73 73 72 71 70 69 67 65 62
84 84 85 85 85 85 85 85 85 85 85 86 86 87 87 88 88 89 90 90 91 92 93 93 93 93 92 90 88 86 83 79 77 74 71 69 67 66 65 64 64 64 64 64 64 64 64 64 64 65 65 67 69 71 75 78 82 85 88 90 91 92 93 93 94 93 91 90 88 87 85 84 82 81 79 78 76 76 75 73 72 71 70 68 66
90 90 90 91 91 91 91 91 91 91 91 91 92 92 92 92 93 93 93 94 94 94 93 92 90 87 84 80 76 72 69 67 65 63 61 60 59 59 59 60 60 60 59 59 58 58 58 58 57 57 57 57 57 57 59 61 64 68 72 76 79 82 85 88 91 92 93 93 92 90 89 87 86 84 83 82 80 78 77 75 74 72 71 70 69
96 96 96 96 97 97 97 96 96 96 96 96 96 96 96 95 95 95 95 94 92 89 86 83 79 74 71 67 64 61 59 58 57 56 55 55 56 56 55 54 52 51 50 50 50 51 51 52 52 53 55 55 55 55 54 53 53 54 56 59 63 67 71 76 79 83 86 89 90 91 90 90 89 87 86 84 83 81 80 78 77 75 74 72 71
90 90 90 90 90 91 91 91 91 91 92 92 92 92 92 91 90 88 86 83 80 77 73 69 66 63 60 57 54 52 51 51 51 51 52 52 52 50 47 44 42 41 42 43 44 45 47 49 51 52 53 53 53 53 52 51 50 48 48 48 49 52 55 59 63 67 71 75 79 82 85 86 87 88 88 87 86 84 83 82 80 79 77 75 74
73 72 72 73 73 73 74 74 74 75 75 76 76 77 77 76 75 74 72 69 67 64 61 59 56 54 51 49 47 47 48 49 49 48 48 47 46 43 41 40 41 42 43 45 46 46 47 48 49 48 46 46 46 46 47 47 46 46 45 44 45 45 45 46 48 51 54 58 62 66 70 74 77 80 82 84 85 85 85 84 83 82 80 78 76
59 59 60 60 60 60 61 61 62 62 63 64 65 65 65 64 64 63 61 59 57 55 53 51 49 48 46 45 46 47 48 49 48 46 45 44 42 40 41 43 44 45 47 47 47 46 46 45 44 42 40 40 40 40 39 39 40 41 42 43 44 45 44 43 43 43 44 46 49 52 55 58 62 66 70 72 74 76 78 79 80 81 81 80 78
Wind_Direction
266 266 266 265 265 265 265 266 267 268 269 269 269 269 269 269 270 270 270 271 271 271 271 271 270 270 269 269 269 269 270 271 271 272 272 272 273 274 274 274 275 275 275 276 276 276 276 276 277 277 277 277 277 278 279 280 281 281 282 283 284 285 286 287 288 289 289 291 291 291 290 290 292 291 290 290 288 288 288 289 290 290 290 292 293
265 266 266 266 267 268 270 271 272 273 273 272 271 270 270 270 270 271 271 271 271 272 272 272 272 272 271 271 270 270 270 271 271 272 272 273 273 274 274 274 274 275 275 275 275 275 276 276 276 276 277 277 277 278 279 280 281 282 282 283 284 285 286 287 289 290 290 291 290 289 289 289 289 288 288 288 287 288 289 289 289 290 290 291 292
266 267 267 268 269 271 273 275 276 276 275 274 273 273 272 272 272 272 272 272 271 271 271 272 272 272 272 272 272 272 271 272 272 273 273 274 275 275 276 276 276 276 276 276 275 275 276 276 276 277 277 278 278 279 280 281 282 282 283 284 285 286 286 287 288 290 291 290 289 289 288 287 287 287 287 287 286 287 288 288 288 289 290 290 290
269 270 270 271 273 274 275 276 276 276 275 275 274 274 274 274 274 274 274 273 273 272 272 271 272 272 272 272 272 273 273 273 273 274 274 275 275 276 277 277 277 277 277 277 276 276 276 277 277 277 278 279 280 281 281 281 282 282 283 284 284 285 285 286 287 288 289 290 290 289 288 287 287 286 285 285 285 285 286 286 287 287 287 288 289
272 273 274 274 275 276 277 277 277 277 276 276 276 275 275 275 275 274 274 274 274 274 274 273 273 273 273 273 273 274 274 274 274 274 275 275 275 275 276 277 277 277 277 277 277 277 278 278 279 279 279 281 281 281 281 281 282 282 283 283 283 283 284 285 286 286 288 289 289 288 288 288 287 286 284 284 285 285 285 285 285 285 285 286 289
275 276 277 277 278 279 278 278 278 277 277 277 276 276 275 275 274 273 273 273 273 273 273 273 273 274 274 274 274 275 275 275 275 275 275 275 275 275 275 275 276 276 276 277 277 277 278 279 279 279 279 280 280 280 280 280 281 281 282 282 282 282 283 284 285 286 288 289 289 289 288 288 287 286 285 284 284 285 286 285 284 284 285 287 290
276 277 278 278 279 279 279 279 279 279 278 278 277 276 276 275 274 273 272 271 271 271 271 272 272 273 273 274 274 274 275 275 275 275 275 274 274 273 273 273 273 274 274 275 275 276 277 278 278 278 278 279 279 279 279 279 279 280 281 281 281 282 283 284 285 286 287 289 289 289 288 288 288 287 286 285 285 285 284 284 283 284 286 288 290
274 276 277 278 278 278 278 279 279 279 279 278 278 277 276 275 274 273 272 271 270 270 270 270 271 272 272 272 273 274 274 275 275 275 274 274 273 272 272 272 272 273 273 273 274 275 276 277 277 278 278 278 279 278 279 279 279 280 281 282 282 283 284 285 285 286 287 287 288 288 287 287 287 287 286 286 285 283 283 283 284 285 286 288 289
269 270 271 273 274 275 276 277 277 277 277 276 276 276 275 274 274 273 272 272 271 271 270 270 270 270 272 272 273 274 274 275 275 275 275 274 273 272 272 271 272 272 272 273 274 275 276 277 278 278 279 279 280 280 280 281 281 282 282 283 283 284 285 285 286 286 287 287 288 288 287 288 288 287 286 285 284 282 282 283 284 284 286 287 288
268 267 267 267 268 268 270 271 273 273 274 274 274 274 273 273 273 272 272 272 272 272 272 272 271 271 271 272 274 275 275 276 276 276 276 275 275 274 273 273 273 273 273 273 274 276 277 278 279 279 280 280 281 282 282 283 283 284 284 284 285 285 285 286 286 287 287 288 289 289 289 290 289 288 287 286 284 283 283 283 283 284 286 287 288
269 269 268 268 267 267 267 267 267 268 268 268 269 270 271 272 272 272 272 272 272 273 273 273 273 273 273 273 273 274 274 275 275 276 276 276 276 275 275 275 275 274 274 274 275 276 278 278 279 280 280 281 281 282 283 283 284 284 285 285 285 286 286 286 287 287 287 288 288 289 290 291 290 288 287 286 284 284 283 283 283 284 285 286 286
271 270 270 270 269 269 268 267 267 266 265 265 265 266 268 269 270 270 271 272 272 273 273 274 274 275 275 275 275 274 274 274 274 275 276 276 276 276 275 275 275 275 275 274 274 275 276 277 278 278 279 280 281 282 282 283 283 284 284 284 285 285 286 286 287 287 287 287 288 288 290 290 289 288 287 285 284 284 284 284 284 283 283 284 284
275 274 273 272 272 271 271 270 270 269 269 268 267 266 267 267 267 268 270 271 272 273 273 274 274 275 276 276 276 276 275 275 274 275 276 277 277 277 277 276 276 275 275 274 274 274 275 275 276 276 277 278 279 280 281 282 282 282 282 282 283 284 284 285 286 286 287 287 287 288 289 289 288 288 285 283 283 284 284 283 283 282 282 283 283
277 276 276 275 274 274 274 273 273 273 272 272 271 271 270 269 268 268 268 268 269 270 271 272 273 273 274 274 274 275 275 275 275 275 276 276 277 277 277 277 277 277 276 275 275 275 275 275 275 275 276 276 277 278 279 280 280 280 281 281 281 282 283 284 285 285 286 286 287 288 288 287 288 287 284 283 283 284 283 281 281 281 281 282 282
280 279 278 277 277 276 276 275 275 274 274 273 273 273 273 272 272 271 271 270 269 269 269 269 270 271 272 272 273 273 273 274 275 275 276 276 276 276 276 276 277 277 277 276 276 276 275 275 275 275 275 276 276 277 277 278 278 278 278 279 280 282 283 284 285 285 286 287 287 288 287 287 286 286 284 283 283 282 280 280 280 280 281 281 282
285 284 283 282 281 280 279 278 277 276 275 275 274 273 272 272 272 272 272 272 271 271 270 269 269 269 270 271 272 273 273 274 274 274 275 275 275 275 275 275 276 276 276 276 276 277 276 276 276 275 276 276 277 277 278 278 277 277 276 276 277 279 281 283 285 285 286 286 286 286 286 286 285 284 283 282 282 280 279 280 280 281 281 281 281
289 289 288 287 286 285 284 283 281 280 278 277 276 275 274 272 271 271 270 270 271 271 271 270 270 270 270 270 271 272 273 274 274 275 275 275 275 275 275 275 275 275 275 275 275 276 276 277 277 277 277 277 277 277 278 278 278 278 277 277 276 277 279 281 281 282 282 283 284 285 285 285 285 283 282 281 280 280 280 281 281 281 280 280 281
290 289 288 287 286 286 285 285 285 284 282 281 279 277 276 274 273 272 271 270 270 270 270 271 271 271 271 271 271 271 272 272 273 274 274 275 275 275 275 275 275 275 275 275 275 276 276 276 277 278 278 278 278 278 278 278 279 279 278 278 277 277 278 278 278 279 279 280 282 283 284 284 285 284 282 281 280 280 281 281 280 279 278 279 279
289 288 286 285 285 285 285 284 284 284 283 283 282 280 278 277 275 273 272 271 270 270 270 270 270 270 270 271 271 271 271 271 271 271 272 273 273 274 274 274 275 275 275 276 276 276 276 276 277 277 278 278 278 278 278 279 279 280 280 280 280 281 280 279 279 279 279 280 281 281 282 283 284 283 283 282 281 280 280 279 277 276 276 276 276
289 288 287 286 286 286 286 287 286 285 284 283 282 281 280 278 276 275 273 272 271 270 270 270 270 270 270 270 270 270 270 270 270 270 270 271 271 271 272 272 272 273 273 274 274 275 275 276 276 277 277 277 278 278 278 279 280 281 281 282 283 284 283 281 281 281 281 281 281 281 281 281 282 281 280 280 280 280 279 277 275 274 274 274 275
290 289 288 287 287 288 289 290 290 290 289 287 285 283 281 279 277 276 274 273 272 271 271 271 271 271 271 271 271 271 271 271 271 271 271 271 271 271 271 271 271 271 271 272 273 273 274 274 275 275 276 276 277 277 278 279 279 280 281 282 283 283 283 282 282 282 282 282 282 281 280 280 280 279 277 276 276 277 275 274 273 272 272 273 274
289 288 287 288 288 289 290 291 293 293 292 292 290 288 286 284 282 279 277 275 274 273 272 272 272 272 272 272 272 272 272 273 273 273 273 273 273 273 273 273 273 272 272 272 272 273 273 274 275 275 276 277 277 278 278 279 279 280 281 282 282 282 282 282 282 282 283 283 282 281 280 278 277 276 275 274 274 273 272 272 272 271 271 271 272
288 287 288 289 291 291 292 293 295 295 295 294 293 292 290 289 288 285 283 280 278 276 275 274 273 273 272 273 273 273 273 273 274 274 274 275 275 275 275 274 274 274 273 273 273 274 274 275 275 276 277 278 278 278 279 279 280 281 281 282 282 282 281 281 282 282 283 283 281 280 279 277 275 274 273 271 270 270 271 272 271 271 271 272 273
287 288 289 291 293 294 295 297 299 299 297 295 293 292 291 290 290 288 286 284 282 280 279 277 276 274 273 272 273 273 273 274 274 274 275 275 276 276 276 276 276 275 275 275 274 274 275 275 276 276 277 277 278 278 278 279 279 280 280 280 280 280 280 280 280 280 280 279 278 277 277 275 275 274 272 270 270 272 275 275 275 275 276 276 276
287 289 291 293 294 295 298 301 302 301 297 294 293 291 290 289 290 290 288 285 282 281 280 279 278 276 273 271 270 270 271 272 273 273 273 274 275 276 277 277 277 277 277 277 276 276 275 275 275 275 275 274 274 274 275 275 276 276 276 276 277 278 278 278 278 277 276 274 273 273 273 273 273 273 272 273 275 276 277 278 278 279 279 279 277
288 290 292 293 294 296 298 302 304 300 294 292 291 290 288 287 287 289 290 288 285 283 281 280 280 277 275 273 271 270 270 270 271 271 272 272 273 274 275 276 277 278 278 278 278 277 277 276 275 274 273 272 271 271 271 271 271 272 272 272 272 273 274 275 275 275 273 271 271 271 271 271 272 272 272 273 274 275 275 277 278 278 278 278 276
287 289 290 291 292 294 298 302 303 297 291 290 291 290 289 288 286 287 289 290 290 287 283 280 279 279 278 278 276 274 273 272 271 270 270 270 270 271 272 273 273 274 275 275 276 276 276 276 275 274 274 273 272 272 272 271 271 272 272 272 272 272 272 272 273 273 273 272 271 271 271 271 272 272 273 273 274 274 275 276 278 279 280 279 278
286 287 288 289 290 293 298 301 301 294 289 289 290 290 290 290 288 287 288 288 289 288 284 280 278 277 279 279 277 276 275 273 272 270 268 267 266 267 267 268 269 269 270 270 271 272 272 272 273 273 273 273 274 274 274 274 274 274 274 275 275 275 275 274 275 276 275 274 273 273 274 274 274 275 276 276 276 277 278 277 278 279 281 282 282
285 286 287 289 291 294 297 299 298 292 288 288 290 289 289 290 288 287 286 286 286 286 284 281 277 276 277 279 279 277 275 273 272 270 268 266 264 262 262 263 264 265 266 267 268 269 270 270 270 271 271 272 274 275 275 276 276 277 277 277 278 278 279 278 278 279 279 278 277 277 277 277 278 278 279 280 280 281 281 279 278 277 277 278 279
285 286 288 289 292 295 296 296 294 291 288 289 289 288 287 287 287 285 284 283 283 283 283 282 279 277 277 278 279 279 277 275 272 271 269 268 266 265 264 263 263 264 265 266 268 269 269 269 269 269 269 270 271 272 273 275 276 276 277 278 279 279 280 279 279 280 281 281 280 280 279 279 280 280 281 281 281 282 282 281 280 278 276 276 277
285 287 289 290 293 294 294 292 290 289 288 289 289 287 285 284 283 283 282 280 279 279 280 280 280 279 278 278 278 278 278 278 276 274 273 272 271 271 270 269 268 268 267 267 267 268 268 268 268 268 267 267 268 268 269 271 272 273 274 276 277 277 278 279 279 280 281 282 282 281 281 281 281 281 281 280 280 280 281 282 283 282 280 278 278
286 288 290 291 292 292 290 288 287 286 286 288 288 287 285 283 281 280 279 279 278 277 277 277 277 278 278 278 278 277 278 278 278 277 277 276 276 275 274 273 272 271 270 269 268 267 267 267 266 266 266 266 266 266 267 267 268 269 271 272 273 274 275 276 277 279 280 281 282 282 283 283 283 282 282 281 281 280 280 280 281 282 281 280 278
288 290 291 291 290 288 286 286 286 284 284 285 286 285 284 283 281 279 278 277 277 276 275 275 275 275 276 276 276 276 276 276 277 278 278 278 278 278 278 277 275 274 272 271 269 268 267 267 266 265 265 265 264 265 265 266 266 267 268 269 270 271 272 273 274 276 277 278 279 281 282 283 284 284 284 284 283 283 282 281 280 280 282 282 278
289 290 290 289 287 285 285 285 284 283 282 282 283 283 282 282 281 280 278 277 276 275 274 273 273 273 273 274 275 275 275 275 275 276 276 277 277 278 278 278 277 276 275 274 272 271 269 268 267 266 265 264 264 264 265 265 266 267 268 268 269 270 271 272 273 274 275 276 277 278 279 281 282 284 285 285 285 284 284 284 282 280 279 280 279
289 289 287 286 285 285 284 284 283 282 280 280 280 280 280 280 279 279 278 277 276 275 274 272 272 271 271 271 272 272 273 274 274 275 275 275 276 276 276 277 277 277 276 276 275 274 272 271 269 268 266 266 265 266 266 266 266 267 267 268 269 270 271 272 273 274 275 276 277 277 278 279 281 282 283 284 285 285 285 285 285 283 280 280 282
287 286 284 284 284 284 283 282 281 281 280 279 278 278 278 278 278 277 277 276 276 275 274 273 272 272 271 271 271 270 271 272 273 273 274 274 275 275 275 275 276 275 275 275 275 275 274 273 273 271 270 269 268 268 268 268 268 268 268 269 269 269 270 270 271 272 274 275 277 278 279 279 280 281 282 283 284 285 285 285 286 286 285 283 284
285 283 283 283 283 282 281 280 280 280 279 279 279 278 278 278 278 278 278 277 277 276 275 275 274 273 273 273 273 273 272 272 272 273 274 274 274 274 275 275 275 275 275 275 275 275 274 274 274 273 272 272 271 270 270 270 270 270 270 270 270 270 270 270 270 270 271 273 274 275 277 278 280 281 282 283 283 284 285 285 286 287 287 286 286
283 282 282 281 281 280 280 279 279 279 279 279 279 279 279 279 279 279 279 279 278 278 278 278 277 277 276 276 277 277 277 276 276 276 276 277 277 276 276 276 275 275 275 274 274 274 274 274 274 274 274 273 272 272 271 271 271 271 271 271 271 271 271 271 271 271 271 271 272 273 275 276 277 279 280 282 282 283 283 284 285 285 286 287 287
282 281 280 280 280 279 279 279 278 279 279 279 279 279 279 279 279 279 279 279 279 279 279 279 279 279 279 279 279 279 280 280 280 280 279 279 279 279 279 279 278 278 277 276 276 275 275 274 274 274 274 274 273 273 272 272 271 270 270 270 270 271 271 271 272 272 272 272 272 273 273 274 275 276 278 279 281 282 283 283 284 284 284 285 286
280 279 279 279 279 278 278 278 278 278 278 278 279 279 279 279 278 278 278 278 278 279 279 279 279 280 280 280 280 280 280 280 280 280 280 280 280 279 279 279 278 278 277 277 276 276 275 275 274 274 273 273 273 272 272 272 271 271 270 270 269 269 270 270 271 271 271 272 272 272 273 273 274 275 276 277 278 279 281 282 283 283 283 283 284
277 277 277 278 278 278 278 278 277 277 278 278 278 278 278 278 278 278 278 278 279 279 279 280 280 280 281 281 281 282 282 281 281 281 281 281 280 280 280 279 279 278 277 276 276 275 275 274 274 273 272 272 272 271 271 271 270 270 270 269 269 269 268 268 269 269 269 270 271 271 272 272 273 273 274 275 275 276 278 279 281 282 283 283 283
276 276 277 277 277 277 277 277 277 277 277 277 277 277 277 277 278 278 278 279 279 280 280 281 281 282 283 283 283 284 284 284 284 283 283 283 282 282 282 281 280 280 279 278 277 276 275 274 273 273 272 271 271 270 270 269 269 269 268 268 268 268 267 267 267 267 267 268 268 269 269 270 271 271 272 273 273 274 275 276 277 279 281 282 282
277 277 277 276 277 277 277 277 277 277 277 277 277 277 278 278 278 278 279 279 280 281 281 282 282 283 284 284 284 285 285 285 285 285 285 285 284 284 283 283 282 281 281 280 279 278 277 276 275 274 272 271 270 269 268 268 267 267 267 266 266 266 266 266 266 266 266 266 266 266 266 267 267 268 269 270 271 272 273 273 275 276 277 279 280
277 277 277 277 277 276 276 276 276 276 277 277 277 277 278 278 278 279 280 280 281 282 282 283 283 284 284 285 286 286 286 286 286 286 286 286 285 285 284 283 283 282 281 281 280 279 278 277 276 275 274 272 271 269 268 267 266 265 264 264 264 264 264 264 264 264 265 265 265 265 265 265 265 266 266 267 268 269 270 271 272 273 274 275 277
277 277 277 277 276 276 276 276 276 276 276 276 276 277 277 278 279 280 280 281 282 283 283 284 285 285 286 286 286 287 287 286 286 286 286 286 285 284 284 283 282 282 281 281 281 280 280 280 279 278 276 275 273 271 269 267 265 264 263 262 262 261 261 261 261 262 262 263 264 264 264 265 265 265 265 265 266 267 268 269 270 271 272 273 274
277 277 277 277 277 277 277 277 277 277 277 277 277 278 278 279 279 280 281 282 283 284 284 285 285 286 286 286 286 286 285 285 285 285 285 285 285 284 284 283 283 282 282 281 281 282 282 283 283 282 281 279 277 274 271 269 266 264 263 262 261 260 259 258 258 258 259 260 261 262 263 263 264 264 264 265 265 265 266 267 268 269 270 271 272
277 277 278 278 278 278 278 278 278 278 278 278 279 279 280 280 281 282 282 283 284 284 284 284 284 284 284 284 284 284 284 284 285 285 285 285 285 285 286 285 285 284 283 282 281 282 282 283 284 284 284 283 282 280 277 274 270 267 264 262 261 260 258 258 257 257 257 258 258 259 260 261 262 262 263 263 264 264 264 265 265 266 267 268 270
278 278 278 278 278 278 278 278 279 279 279 280 280 280 281 281 282 282 283 283 283 283 282 282 283 283 283 283 283 283 283 284 285 285 285 286 288 288 289 288 287 286 286 285 284 284 284 285 286 286 286 285 284 282 280 278 275 273 270 267 264 262 260 259 258 258 257 257 258 258 258 259 259 260 261 261 262 262 263 263 263 264 264 265 267
279 279 279 279 279 278 279 279 279 279 279 279 279 280 280 280 280 280 280 280 280 280 281 281 281 281 281 281 281 281 283 284 285 286 287 289 290 290 290 290 290 290 290 289 288 288 287 288 288 288 287 286 285 282 280 277 275 273 273 272 270 268 265 263 262 261 260 259 258 258 257 257 258 258 258 259 259 260 261 261 262 262 262 262 264
281 281 281 280 280 280 279 279 279 278 278 278 278 278 278 278 278 278 279 279 279 279 279 279 279 278 278 277 278 280 283 286 286 286 288 289 289 289 289 289 290 291 292 292 291 289 288 288 288 288 288 288 287 284 280 276 272 269 268 269 269 269 269 267 266 265 263 262 261 260 259 258 257 256 256 256 256 257 257 258 259 260 260 260 261
285 284 284 283 282 282 281 280 280 280 280 279 279 279 279 279 279 279 279 278 278 277 276 276 275 274 273 273 277 281 285 286 285 285 286 286 285 285 286 286 288 290 292 293 293 291 288 287 288 287 289 292 292 288 283 279 274 270 267 265 266 267 267 266 266 266 266 265 264 263 262 261 259 257 255 254 254 253 253 253 254 255 256 256 257
Height
5751 5751 5751 5752 5752 5752 5752 5752 5752 5752 5752 5752 5751 5751 5750 5749 5749 5749 5749 5748 5746 5746 5746 5745 5744 5744 5744 5743 5743 5742 5741 5740 5738 5737 5736 5736 5735 5734 5733 5732 5731 5731 5729 5728 5727 5725 5724 5723 5722 5720 5718 5716 5716 5714 5712 5711 5709 5708 5707 5705 5703 5701 5699 5697 5697 5700 5701 5697 5695 5693 5689 5687 5686 5683 5681 5678 5675 5672 5671 5669 5667 5665 5663 5661 5658
5744 5744 5745 5744 5744 5744 5744 5744 5744 5745 5744 5744 5743 5743 5742 5742 5741 5741 5741 5740 5739 5739 5738 5737 5736 5736 5736 5736 5735 5734 5733 5732 5730 5729 5729 5728 5727 5726 5725 5724 5724 5723 5722 5721 5720 5717 5716 5716 5715 5713 5710 5709 5709 5707 5706 5704 5702 5701 5700 5698 5697 5695 5692 5690 5690 5692 5693 5691 5687 5686 5683 5681 5679 5677 5674 5672 5670 5667 5666 5664 5662 5660 5658 5655 5653
5738 5738 5738 5737 5737 5737 5736 5736 5736 5736 5736 5735 5735 5734 5734 5733 5733 5733 5733 5732 5732 5731 5730 5730 5729 5728 5728 5728 5727 5726 5725 5724 5723 5722 5721 5721 5720 5719 5717 5716 5716 5715 5714 5713 5712 5709 5708 5708 5707 5706 5703 5702 5702 5700 5699 5697 5695 5693 5692 5690 5689 5688 5686 5683 5683 5683 5685 5684 5681 5679 5677 5675 5673 5671 5669 5667 5664 5662 5661 5659 5656 5655 5652 5650 5648
5731 5731 5731 5730 5729 5729 5728 5728 5728 5728 5728 5727 5727 5726 5726 5725 5725 5725 5725 5724 5724 5723 5722 5722 5721 5720 5720 5720 5719 5718 5717 5716 5715 5714 5714 5713 5712 5711 5709 5708 5707 5707 5706 5705 5704 5701 5700 5700 5699 5697 5695 5695 5695 5693 5691 5689 5687 5686 5685 5683 5682 5681 5679 5676 5675 5675 5675 5675 5674 5672 5670 5668 5666 5665 5663 5660 5659 5657 5656 5653 5651 5649 5646 5644 5642
5725 5725 5724 5723 5722 5721 5721 5721 5720 5720 5720 5720 5720 5719 5719 5718 5718 5717 5717 5717 5716 5715 5714 5714 5713 5713 5713 5712 5711 5710 5709 5708 5707 5707 5706 5705 5704 5703 5702 5701 5700 5699 5698 5697 5696 5694 5693 5693 5692 5689 5687 5687 5687 5685 5683 5681 5680 5678 5678 5676 5674 5673 5671 5669 5668 5666 5666 5666 5666 5664 5662 5661 5659 5658 5655 5653 5651 5650 5649 5647 5644 5642 5639 5637 5636
5718 5718 5717 5717 5716 5715 5714 5714 5713 5713 5713 5712 5712 5712 5711 5711 5711 5710 5709 5709 5709 5708 5707 5706 5705 5705 5705 5704 5703 5702 5701 5700 5700 5699 5698 5696 5695 5695 5694 5693 5692 5691 5691 5690 5688 5687 5686 5685 5684 5682 5680 5680 5679 5677 5675 5674 5672 5671 5670 5669 5667 5665 5664 5662 5660 5659 5658 5658 5658 5656 5655 5653 5652 5650 5648 5646 5644 5643 5641 5640 5637 5634 5632 5631 5629
5712 5712 5711 5711 5711 5709 5708 5707 5707 5706 5705 5705 5705 5704 5704 5704 5703 5703 5702 5702 5702 5701 5700 5699 5698 5698 5697 5697 5696 5694 5693 5693 5692 5691 5689 5688 5687 5686 5686 5685 5685 5684 5683 5683 5681 5680 5679 5678 5677 5675 5673 5672 5671 5669 5667 5666 5665 5664 5663 5661 5660 5658 5657 5656 5653 5652 5650 5650 5650 5649 5647 5646 5644 5643 5641 5640 5638 5637 5634 5631 5630 5628 5626 5624 5622
5706 5705 5705 5704 5704 5703 5703 5701 5700 5700 5698 5698 5697 5697 5696 5696 5695 5695 5694 5694 5694 5693 5693 5692 5691 5691 5690 5689 5688 5687 5686 5685 5684 5682 5681 5680 5678 5678 5678 5677 5677 5677 5676 5675 5674 5673 5672 5671 5670 5668 5666 5665 5663 5661 5660 5658 5657 5657 5656 5654 5652 5651 5650 5648 5646 5644 5643 5642 5642 5641 5639 5638 5637 5636 5635 5633 5631 5629 5626 5623 5623 5621 5619 5617 5615
5699 5698 5697 5697 5696 5696 5695 5694 5694 5693 5691 5691 5690 5689 5688 5688 5687 5687 5686 5686 5686 5685 5685 5685 5684 5683 5682 5681 5680 5679 5678 5677 5675 5673 5672 5671 5670 5670 5670 5669 5669 5669 5668 5668 5667 5666 5665 5664 5662 5661 5659 5657 5656 5654 5652 5650 5649 5649 5648 5646 5644 5643 5642 5641 5639 5638 5636 5635 5634 5634 5632 5631 5630 5628 5627 5625 5623 5621 5618 5616 5615 5613 5611 5610 5609
5690 5690 5689 5688 5688 5688 5687 5686 5685 5685 5684 5683 5682 5681 5680 5679 5679 5678 5677 5677 5677 5676 5676 5676 5675 5675 5674 5674 5672 5671 5669 5668 5666 5664 5663 5662 5661 5661 5661 5661 5660 5660 5661 5661 5660 5659 5657 5656 5655 5653 5651 5650 5648 5646 5644 5643 5642 5641 5640 5638 5637 5636 5634 5633 5632 5630 5628 5627 5627 5626 5624 5625 5623 5620 5619 5618 5615 5613 5611 5609 5607 5606 5604 5603 5602
5681 5680 5679 5679 5679 5678 5678 5678 5677 5676 5676 5675 5674 5673 5672 5671 5670 5670 5669 5669 5668 5667 5667 5666 5665 5665 5665 5665 5664 5663 5661 5659 5657 5655 5653 5652 5652 5652 5652 5653 5652 5652 5652 5652 5652 5651 5649 5648 5647 5645 5643 5642 5640 5638 5636 5635 5634 5633 5632 5630 5629 5628 5627 5625 5624 5622 5619 5619 5619 5618 5617 5617 5617 5614 5612 5610 5607 5605 5604 5602 5600 5599 5597 5596 5594
5672 5671 5671 5670 5670 5669 5669 5668 5667 5667 5666 5666 5665 5665 5664 5662 5661 5661 5660 5659 5659 5658 5657 5656 5656 5654 5654 5655 5654 5653 5652 5650 5648 5646 5644 5643 5642 5642 5643 5644 5644 5644 5645 5644 5644 5643 5641 5640 5639 5637 5635 5634 5631 5630 5628 5627 5625 5624 5623 5622 5621 5619 5618 5617 5616 5614 5611 5610 5611 5611 5610 5610 5609 5607 5604 5602 5599 5597 5596 5595 5594 5592 5589 5587 5586
5663 5662 5662 5661 5661 5660 5660 5659 5658 5657 5657 5656 5656 5655 5655 5654 5652 5652 5651 5650 5649 5648 5647 5646 5646 5644 5644 5644 5643 5642 5641 5639 5638 5637 5635 5634 5632 5631 5633 5634 5634 5635 5635 5635 5634 5633 5632 5631 5630 5629 5627 5625 5623 5622 5620 5618 5617 5615 5615 5614 5613 5612 5610 5609 5607 5605 5603 5602 5603 5604 5603 5601 5600 5600 5597 5593 5591 5590 5589 5588 5586 5584 5582 5580 5578
5653 5652 5651 5651 5650 5650 5650 5649 5649 5648 5647 5646 5646 5645 5644 5644 5643 5642 5642 5640 5639 5638 5637 5636 5635 5633 5633 5633 5632 5631 5629 5627 5626 5625 5625 5625 5623 5622 5622 5622 5622 5623 5623 5623 5622 5622 5622 5620 5620 5620 5618 5616 5615 5613 5611 5609 5607 5606 5606 5606 5605 5604 5602 5601 5599 5596 5594 5593 5594 5596 5596 5593 5592 5592 5589 5585 5584 5583 5581 5580 5578 5576 5574 5573 5571
5641 5641 5640 5639 5639 5639 5639 5638 5638 5637 5636 5636 5635 5634 5632 5632 5631 5631 5630 5629 5628 5628 5626 5625 5624 5622 5621 5620 5620 5620 5617 5614 5613 5613 5613 5613 5612 5612 5612 5612 5612 5612 5611 5610 5609 5609 5610 5608 5607 5608 5608 5606 5605 5602 5601 5599 5598 5597 5597 5597 5596 5595 5594 5593 5591 5587 5585 5585 5585 5586 5586 5584 5583 5583 5581 5578 5577 5575 5573 5572 5571 5569 5567 5566 5564
5629 5629 5628 5628 5627 5627 5627 5627 5627 5626 5625 5624 5624 5623 5621 5621 5619 5619 5618 5617 5615 5615 5615 5614 5613 5612 5610 5608 5608 5608 5605 5603 5602 5601 5600 5600 5600 5600 5600 5600 5601 5601 5600 5599 5597 5596 5596 5595 5594 5595 5595 5596 5594 5591 5588 5587 5586 5587 5588 5588 5587 5586 5587 5586 5582 5578 5578 5577 5576 5577 5577 5576 5575 5575 5573 5571 5569 5567 5565 5564 5563 5561 5559 5558 5557
5620 5619 5618 5617 5617 5616 5615 5616 5615 5615 5614 5614 5613 5611 5610 5610 5608 5607 5607 5606 5604 5603 5602 5602 5601 5600 5599 5597 5596 5596 5594 5591 5590 5589 5588 5588 5588 5587 5587 5587 5588 5589 5589 5588 5586 5586 5585 5583 5581 5582 5583 5584 5582 5579 5577 5575 5574 5575 5577 5577 5577 5578 5579 5578 5573 5570 5570 5569 5568 5568 5567 5567 5567 5566 5565 5563 5561 5559 5557 5557 5556 5553 5551 5550 5549
5613 5612 5610 5609 5608 5607 5606 5605 5605 5604 5603 5603 5602 5601 5600 5599 5597 5596 5595 5595 5594 5592 5591 5591 5590 5588 5586 5585 5584 5584 5583 5581 5579 5578 5576 5576 5576 5576 5575 5575 5575 5575 5575 5576 5575 5574 5574 5572 5570 5569 5570 5571 5570 5568 5566 5563 5562 5564 5565 5565 5566 5569 5571 5568 5563 5562 5561 5560 5559 5559 5558 5558 5558 5557 5556 5554 5552 5551 5549 5549 5547 5544 5542 5542 5541
5606 5605 5603 5601 5600 5598 5597 5596 5595 5594 5594 5593 5592 5591 5589 5588 5587 5585 5583 5583 5583 5581 5580 5580 5579 5577 5575 5573 5572 5571 5571 5570 5568 5567 5566 5564 5564 5564 5564 5563 5563 5562 5562 5562 5562 5562 5561 5560 5559 5558 5558 5559 5558 5556 5554 5552 5551 5552 5552 5551 5553 5559 5560 5555 5551 5552 5551 5550 5550 5550 5549 5549 5549 5547 5547 5545 5543 5542 5541 5539 5537 5535 5534 5533 5532
5599 5597 5594 5592 5590 5588 5587 5585 5584 5584 5583 5583 5582 5581 5579 5578 5576 5575 5573 5572 5572 5571 5569 5568 5569 5567 5564 5562 5560 5559 5558 5557 5556 5555 5554 5553 5552 5552 5552 5552 5552 5551 5551 5551 5551 5550 5549 5548 5547 5547 5547 5547 5547 5545 5544 5541 5540 5540 5540 5539 5541 5545 5544 5541 5540 5541 5540 5540 5541 5540 5540 5540 5539 5538 5538 5536 5534 5534 5532 5529 5527 5526 5525 5524 5523
5592 5589 5586 5584 5582 5579 5577 5575 5573 5571 5570 5571 5571 5570 5568 5567 5566 5564 5563 5562 5561 5560 5559 5557 5558 5557 5554 5551 5549 5547 5546 5546 5544 5543 5542 5542 5541 5540 5540 5539 5540 5540 5541 5540 5540 5540 5539 5538 5537 5536 5536 5536 5536 5534 5533 5531 5529 5529 5529 5529 5529 5530 5530 5529 5530 5530 5529 5530 5530 5530 5530 5530 5529 5528 5528 5526 5525 5524 5522 5520 5518 5517 5516 5515 5514
5584 5581 5579 5576 5574 5572 5569 5566 5563 5561 5558 5558 5558 5557 5556 5554 5554 5553 5551 5551 5550 5549 5548 5547 5547 5547 5545 5542 5539 5537 5536 5535 5533 5532 5531 5530 5530 5529 5528 5528 5528 5528 5530 5530 5529 5529 5528 5528 5527 5526 5525 5525 5525 5524 5523 5521 5519 5519 5519 5519 5518 5519 5518 5518 5519 5519 5519 5519 5519 5519 5519 5519 5518 5517 5517 5516 5515 5513 5511 5510 5508 5506 5505 5505 5505
5576 5573 5571 5568 5566 5564 5561 5558 5555 5551 5549 5547 5546 5545 5544 5542 5542 5541 5540 5539 5539 5539 5537 5536 5536 5537 5536 5533 5529 5527 5526 5525 5523 5521 5520 5520 5519 5518 5517 5517 5517 5517 5518 5519 5519 5518 5518 5518 5517 5516 5515 5515 5514 5513 5512 5510 5509 5509 5509 5508 5508 5508 5508 5508 5509 5509 5509 5509 5509 5509 5509 5508 5508 5507 5506 5505 5504 5502 5500 5500 5498 5497 5496 5495 5496
5567 5565 5563 5560 5558 5555 5552 5549 5546 5542 5540 5538 5536 5535 5534 5533 5532 5531 5529 5528 5528 5528 5528 5526 5526 5526 5526 5524 5521 5518 5516 5515 5513 5511 5510 5510 5509 5508 5507 5507 5506 5506 5507 5508 5508 5508 5509 5508 5508 5507 5506 5505 5504 5502 5502 5500 5499 5499 5499 5498 5498 5498 5498 5498 5499 5500 5500 5499 5499 5500 5500 5499 5498 5498 5497 5496 5495 5494 5492 5491 5489 5488 5488 5488 5487
5558 5556 5554 5552 5550 5547 5544 5541 5537 5534 5531 5528 5527 5526 5525 5524 5523 5521 5520 5519 5518 5518 5518 5517 5516 5516 5515 5514 5513 5510 5507 5505 5503 5501 5501 5500 5499 5499 5498 5497 5496 5496 5496 5496 5497 5498 5498 5499 5498 5498 5496 5495 5494 5493 5493 5491 5490 5490 5490 5489 5489 5489 5489 5489 5489 5489 5489 5489 5488 5488 5489 5489 5488 5488 5488 5488 5487 5486 5484 5483 5481 5480 5480 5479 5478
5549 5547 5545 5543 5540 5538 5536 5533 5530 5526 5523 5520 5518 5517 5516 5515 5515 5513 5512 5510 5509 5509 5508 5508 5507 5507 5506 5505 5505 5503 5500 5497 5494 5492 5491 5492 5491 5490 5490 5489 5488 5487 5487 5486 5487 5488 5488 5488 5488 5488 5487 5485 5484 5484 5484 5483 5481 5481 5480 5480 5480 5480 5480 5479 5479 5479 5479 5479 5478 5478 5478 5478 5478 5478 5478 5478 5477 5476 5475 5474 5473 5472 5471 5470 5468
5541 5538 5536 5533 5531 5528 5526 5524 5522 5518 5516 5513 5511 5509 5507 5506 5506 5506 5504 5502 5501 5500 5500 5499 5498 5498 5497 5497 5496 5495 5493 5490 5487 5485 5483 5483 5483 5482 5482 5482 5480 5479 5479 5478 5478 5479 5479 5479 5479 5478 5477 5476 5475 5475 5474 5474 5473 5472 5470 5470 5469 5469 5469 5469 5469 5469 5469 5469 5469 5469 5468 5468 5468 5468 5468 5468 5468 5467 5466 5465 5464 5463 5462 5461 5459
5531 5529 5526 5524 5521 5519 5517 5515 5512 5510 5508 5506 5504 5502 5500 5498 5498 5497 5496 5494 5494 5493 5492 5491 5490 5488 5488 5488 5487 5487 5486 5483 5479 5478 5476 5475 5475 5475 5474 5474 5473 5472 5471 5470 5471 5471 5472 5472 5471 5470 5469 5468 5467 5467 5466 5465 5464 5463 5462 5461 5460 5460 5460 5460 5460 5460 5460 5459 5460 5460 5460 5459 5459 5459 5459 5458 5458 5458 5457 5457 5456 5455 5454 5453 5451
5521 5519 5516 5514 5512 5509 5507 5505 5503 5501 5500 5499 5497 5495 5493 5491 5490 5490 5488 5485 5484 5484 5484 5484 5482 5479 5479 5479 5477 5478 5478 5476 5473 5471 5469 5468 5467 5466 5466 5465 5465 5464 5464 5463 5463 5464 5464 5464 5463 5462 5461 5460 5460 5459 5459 5457 5457 5456 5455 5454 5453 5453 5452 5452 5452 5451 5451 5451 5451 5451 5451 5451 5451 5450 5450 5450 5450 5450 5449 5448 5448 5446 5445 5444 5443
5511 5508 5506 5504 5501 5499 5497 5495 5493 5492 5491 5490 5489 5487 5486 5484 5482 5481 5481 5478 5476 5475 5474 5474 5473 5471 5471 5470 5468 5468 5469 5469 5467 5465 5463 5462 5460 5459 5458 5457 5456 5456 5455 5455 5455 5456 5457 5456 5456 5455 5454 5453 5453 5452 5451 5451 5450 5449 5448 5447 5446 5446 5445 5444 5444 5443 5443 5443 5443 5443 5443 5443 5442 5442 5441 5441 5441 5441 5440 5440 5439 5438 5436 5435 5435
5501 5498 5496 5493 5491 5489 5487 5486 5484 5483 5481 5480 5479 5478 5478 5477 5475 5473 5471 5470 5469 5467 5465 5465 5464 5462 5461 5462 5461 5459 5459 5459 5459 5457 5456 5455 5454 5453 5452 5451 5449 5449 5448 5447 5448 5449 5448 5448 5449 5448 5447 5446 5446 5445 5444 5444 5443 5442 5441 5441 5440 5439 5438 5437 5436 5436 5436 5435 5435 5434 5434 5434 5434 5433 5433 5432 5433 5433 5432 5431 5431 5430 5428 5427 5427
5490 5488 5486 5483 5481 5479 5477 5476 5474 5473 5472 5470 5468 5467 5467 5468 5468 5467 5464 5461 5460 5459 5458 5456 5455 5453 5452 5452 5452 5452 5450 5450 5449 5448 5447 5446 5445 5445 5444 5444 5443 5442 5441 5440 5441 5441 5441 5440 5441 5440 5439 5439 5439 5438 5437 5437 5436 5435 5434 5434 5433 5432 5431 5430 5430 5429 5429 5428 5427 5427 5426 5426 5425 5425 5425 5424 5424 5424 5423 5422 5422 5421 5421 5420 5419
5478 5476 5474 5472 5471 5469 5467 5466 5464 5463 5462 5460 5459 5457 5456 5456 5457 5458 5457 5455 5453 5451 5450 5448 5447 5446 5444 5442 5442 5442 5442 5441 5440 5439 5438 5437 5436 5436 5436 5436 5435 5434 5433 5432 5433 5433 5433 5432 5432 5432 5431 5431 5431 5430 5430 5429 5429 5428 5427 5427 5426 5425 5424 5424 5423 5423 5422 5421 5420 5420 5419 5418 5418 5418 5417 5416 5416 5416 5415 5414 5413 5413 5413 5412 5411
5466 5465 5462 5461 5459 5458 5456 5454 5453 5452 5451 5450 5448 5448 5447 5446 5445 5446 5447 5447 5446 5444 5442 5440 5438 5437 5436 5435 5434 5433 5433 5433 5432 5431 5430 5429 5428 5427 5427 5427 5427 5426 5424 5424 5424 5424 5424 5424 5424 5424 5423 5423 5423 5422 5422 5421 5421 5420 5420 5419 5419 5418 5417 5417 5416 5416 5415 5414 5413 5413 5412 5411 5411 5410 5409 5408 5408 5407 5407 5406 5405 5404 5405 5404 5403
5456 5454 5451 5449 5448 5446 5445 5444 5442 5441 5441 5440 5439 5438 5437 5436 5435 5435 5435 5435 5435 5435 5434 5432 5430 5429 5428 5427 5426 5425 5424 5424 5423 5422 5421 5421 5419 5418 5418 5418 5418 5417 5416 5415 5414 5414 5415 5415 5415 5415 5414 5414 5414 5413 5413 5413 5412 5412 5412 5411 5411 5410 5410 5409 5409 5408 5407 5407 5406 5405 5405 5404 5403 5403 5402 5401 5400 5400 5399 5398 5397 5396 5396 5396 5395
5445 5443 5441 5438 5436 5435 5434 5433 5431 5430 5429 5429 5428 5427 5427 5426 5425 5425 5424 5424 5423 5424 5424 5423 5422 5420 5419 5417 5417 5416 5416 5415 5414 5413 5412 5412 5411 5409 5409 5409 5409 5408 5407 5406 5405 5405 5405 5405 5405 5405 5404 5404 5404 5404 5403 5403 5403 5403 5403 5402 5402 5402 5401 5401 5401 5400 5400 5399 5399 5398 5397 5396 5396 5395 5394 5394 5393 5392 5391 5390 5389 5388 5388 5388 5387
5434 5432 5431 5428 5426 5424 5423 5422 5421 5419 5419 5418 5417 5417 5416 5415 5414 5414 5414 5413 5412 5413 5413 5412 5411 5411 5410 5408 5406 5406 5406 5406 5405 5404 5403 5402 5401 5400 5399 5399 5399 5398 5397 5396 5395 5394 5395 5395 5394 5394 5394 5394 5394 5393 5393 5393 5393 5392 5392 5392 5392 5392 5392 5392 5392 5392 5391 5391 5390 5390 5389 5389 5388 5387 5386 5386 5385 5385 5384 5383 5382 5381 5381 5380 5380
5423 5422 5420 5417 5415 5414 5413 5411 5410 5409 5408 5408 5407 5406 5405 5405 5404 5403 5402 5402 5401 5401 5401 5400 5400 5399 5399 5398 5396 5395 5395 5395 5394 5394 5393 5392 5390 5389 5388 5388 5388 5387 5387 5386 5385 5384 5384 5384 5383 5383 5382 5382 5382 5382 5382 5382 5382 5382 5382 5381 5382 5382 5382 5382 5382 5382 5382 5382 5382 5381 5381 5380 5380 5379 5378 5378 5377 5377 5376 5376 5375 5374 5374 5373 5373
5412 5411 5408 5406 5405 5404 5402 5401 5400 5399 5398 5397 5396 5396 5395 5394 5394 5393 5392 5391 5391 5390 5389 5389 5388 5387 5387 5387 5385 5384 5384 5383 5382 5382 5381 5380 5379 5378 5377 5376 5376 5375 5375 5374 5373 5372 5372 5372 5372 5371 5370 5370 5370 5370 5370 5370 5370 5370 5370 5370 5370 5371 5371 5371 5371 5371 5372 5372 5372 5371 5371 5371 5371 5371 5370 5370 5369 5368 5368 5368 5367 5367 5367 5366 5366
5401 5399 5397 5396 5394 5393 5392 5391 5390 5388 5388 5387 5386 5385 5384 5383 5383 5382 5381 5380 5380 5379 5378 5377 5377 5376 5375 5374 5373 5372 5372 5372 5371 5369 5368 5368 5367 5365 5364 5363 5363 5362 5362 5361 5360 5359 5359 5359 5359 5358 5358 5358 5357 5357 5356 5356 5356 5357 5357 5357 5358 5359 5359 5360 5360 5360 5360 5361 5361 5361 5361 5361 5361 5361 5361 5361 5360 5360 5359 5359 5359 5359 5359 5359 5358
5389 5388 5386 5385 5383 5382 5381 5380 5378 5377 5377 5376 5375 5374 5373 5372 5371 5371 5370 5369 5368 5367 5366 5365 5364 5363 5362 5361 5360 5359 5358 5358 5357 5355 5354 5353 5352 5351 5350 5348 5347 5347 5346 5345 5345 5344 5343 5344 5344 5343 5343 5343 5343 5343 5343 5343 5343 5343 5343 5343 5344 5346 5347 5347 5348 5348 5348 5349 5349 5349 5350 5350 5350 5351 5351 5351 5351 5351 5350 5350 5350 5349 5350 5350 5350
5377 5376 5375 5374 5372 5371 5370 5369 5367 5366 5365 5364 5363 5362 5361 5360 5360 5359 5358 5357 5356 5355 5354 5353 5352 5351 5349 5348 5346 5345 5343 5343 5342 5340 5339 5338 5337 5335 5334 5332 5330 5329 5328 5328 5327 5327 5327 5327 5327 5326 5326 5326 5326 5326 5327 5328 5328 5328 5329 5329 5330 5331 5332 5333 5334 5335 5335 5336 5337 5338 5338 5339 5339 5340 5340 5341 5341 5341 5341 5341 5341 5341 5341 5341 5341
5365 5364 5363 5361 5360 5359 5358 5357 5356 5354 5353 5352 5351 5350 5349 5348 5347 5346 5345 5345 5344 5342 5342 5341 5339 5338 5336 5334 5333 5331 5329 5328 5326 5325 5323 5322 5320 5319 5317 5315 5313 5312 5310 5309 5308 5307 5307 5308 5308 5308 5307 5307 5307 5308 5308 5310 5311 5311 5312 5314 5315 5316 5317 5319 5320 5320 5321 5322 5323 5325 5326 5327 5328 5329 5329 5330 5331 5331 5331 5332 5332 5332 5332 5332 5333
5353 5351 5350 5349 5348 5347 5345 5345 5344 5342 5341 5340 5339 5337 5336 5335 5334 5333 5332 5331 5330 5329 5328 5327 5326 5325 5323 5321 5319 5317 5315 5313 5311 5309 5307 5306 5304 5302 5300 5298 5296 5294 5292 5290 5289 5288 5287 5287 5287 5287 5287 5286 5286 5287 5288 5289 5291 5292 5294 5296 5298 5299 5301 5303 5304 5305 5306 5307 5309 5311 5312 5314 5316 5317 5318 5319 5320 5320 5320 5321 5322 5323 5323 5324 5324
5340 5339 5338 5336 5335 5334 5333 5332 5331 5330 5329 5327 5326 5325 5323 5322 5321 5320 5319 5318 5317 5315 5314 5313 5311 5310 5309 5307 5305 5302 5300 5298 5296 5294 5292 5291 5289 5287 5285 5283 5281 5279 5277 5275 5273 5271 5270 5269 5269 5268 5268 5267 5266 5266 5267 5268 5269 5271 5273 5275 5278 5281 5283 5285 5287 5288 5290 5292 5294 5296 5298 5300 5302 5304 5306 5307 5308 5309 5310 5311 5312 5313 5313 5314 5314
5327 5326 5325 5323 5322 5321 5319 5318 5317 5316 5315 5314 5313 5311 5310 5309 5308 5307 5306 5305 5303 5302 5300 5299 5297 5296 5295 5293 5291 5289 5287 5285 5283 5282 5280 5278 5276 5275 5273 5271 5269 5267 5265 5263 5262 5260 5258 5257 5255 5254 5253 5251 5250 5249 5249 5249 5250 5251 5253 5255 5258 5261 5264 5266 5268 5270 5273 5275 5278 5280 5282 5285 5287 5289 5292 5294 5295 5296 5298 5299 5301 5302 5303 5304 5304
5314 5313 5311 5310 5308 5307 5305 5304 5303 5302 5301 5300 5299 5297 5296 5295 5294 5293 5292 5291 5290 5288 5287 5285 5284 5282 5281 5280 5279 5277 5276 5274 5273 5271 5269 5268 5266 5264 5262 5260 5258 5256 5254 5253 5252 5250 5249 5247 5245 5243 5241 5240 5238 5237 5235 5235 5235 5235 5236 5237 5239 5242 5245 5247 5249 5252 5255 5258 5261 5264 5266 5269 5272 5274 5277 5279 5281 5283 5285 5287 5289 5291 5292 5293 5294
5299 5298 5296 5295 5293 5292 5291 5290 5289 5287 5286 5285 5284 5283 5282 5281 5280 5279 5279 5278 5276 5275 5274 5272 5271 5271 5270 5269 5268 5267 5266 5265 5263 5262 5260 5258 5256 5254 5252 5250 5248 5246 5245 5243 5242 5241 5240 5238 5236 5234 5232 5230 5228 5226 5225 5224 5224 5223 5224 5224 5225 5227 5229 5231 5233 5235 5238 5240 5244 5247 5250 5253 5256 5259 5262 5264 5267 5269 5272 5274 5276 5278 5280 5282 5283
5283 5282 5281 5279 5278 5277 5275 5275 5273 5272 5271 5271 5270 5269 5269 5268 5267 5266 5265 5264 5263 5262 5262 5261 5260 5260 5259 5259 5258 5258 5257 5256 5255 5253 5251 5250 5248 5246 5244 5242 5240 5238 5237 5236 5234 5233 5231 5230 5228 5226 5223 5221 5219 5217 5216 5215 5215 5215 5215 5215 5216 5216 5217 5219 5220 5221 5223 5225 5228 5230 5233 5236 5239 5242 5245 5248 5252 5255 5258 5260 5263 5265 5267 5270 5272
5269 5268 5267 5266 5265 5263 5262 5261 5260 5259 5258 5257 5257 5256 5255 5255 5254 5254 5253 5252 5252 5251 5251 5250 5250 5250 5250 5250 5250 5249 5249 5248 5246 5245 5243 5242 5240 5238 5237 5235 5233 5232 5230 5228 5227 5225 5224 5222 5220 5218 5216 5213 5211 5209 5207 5206 5206 5206 5207 5208 5208 5209 5209 5210 5211 5211 5212 5214 5215 5216 5218 5220 5223 5226 5229 5232 5236 5239 5242 5245 5248 5251 5254 5257 5260
5258 5257 5256 5255 5254 5253 5251 5250 5249 5248 5247 5246 5245 5244 5244 5243 5243 5242 5242 5242 5242 5241 5241 5241 5241 5241 5241 5241 5241 5241 5240 5240 5238 5237 5236 5234 5233 5232 5230 5228 5227 5225 5223 5221 5219 5217 5216 5214 5213 5211 5209 5207 5204 5202 5200 5199 5199 5199 5200 5200 5201 5201 5202 5202 5203 5203 5204 5204 5205 5206 5207 5208 5210 5212 5214 5217 5220 5223 5226 5229 5233 5236 5240 5243 5246